Regional Weather Roundup
Issued by NWS Wakefield, VA

Home | Current Version | Previous Version | Graphics & Text | Print | Product List | Glossary On
Versions: 1 2 3 4 5 6 7 8 9 10 11 12 13 14 15 16 17 18 19 20 21 22 23 24 25 26 27 28 29 30 31 32 33 34 35 36 37 38 39 40 41 42 43 44 45 46 47 48 49 50
000
ASUS41 KAKQ 181214
RWRAKQ

REGIONAL WEATHER ROUNDUP
NATIONAL WEATHER SERVICE WAKEFIELD VA
800 AM EDT SAT APR 18 2015

Note: "fair" indicates few or no clouds below 12,000 feet with no
significant weather and/or obstructions to visibility. * = Denotes
station may not report precipitation (e.g., rain,snow,etc.),
thunder or fog.

VAZ042-051-052>054-056-181300-
NORTHERN VIRGINIA

CITY           SKY/WX    TMP DP  RH WIND       PRES   REMARKS
WASH NATIONAL  MOSUNNY   64  57  78 CALM      30.04R
DULLES         MOSUNNY   58  54  86 CALM      30.04R
FORT BELVOIR   SUNNY     59  57  94 CALM      30.04R
QUANTICO       MOSUNNY   61  55  81 NW3       30.05R
FREDERICKSBRG* MOSUNNY   62  61  96 CALM      30.03S
STAFFORD*      MOSUNNY   57  50  79 CALM      30.08S
WARRENTON      MOSUNNY   57  57 100 CALM      30.04S
CULPEPER*      SUNNY     59  57  94 CALM      30.05S
MANASSAS*      SUNNY     55  55 100 CALM      30.05R
LEESBURG*      SUNNY     61  55  82 N3        30.05S
WINCHESTER     SUNNY     55  52  88 CALM      30.07R
FRONT ROYAL*   FAIR      54  54 100 CALM      30.06R
LURAY*         FAIR      55  55 100 CALM      30.07R
$$

VAZ048-049-060>072-079>083-181300-
CENTRAL AND SOUTH CENTRAL VIRGINIA

CITY           SKY/WX    TMP DP  RH WIND       PRES   REMARKS
RICHMOND       CLOUDY    64  59  83 NE8       30.02R
CHESTERFIELD*  NOT AVBL
PETERSBURG*    PTSUNNY   63  62  96 CALM      30.03R
HANOVER        PTSUNNY   61  59  93 CALM      30.04S FOG
TAPPAHANNOCK*  PTSUNNY   64  56  76 CALM      30.03R
QUINTON*       CLOUDY    63  58  85 N3        30.02R
CHARLOTTSVILLE MOSUNNY   58  57  97 CALM      30.04S
GORDONSVILLE*  FAIR      57  56  96 CALM      30.04S
ORANGE*        MOSUNNY   63  57  82 CALM      30.06R
LOUISA*        PTSUNNY   63  57  82 N3        30.03S
BUMPASS*       FAIR      60  57  91 CALM      30.04S
FARMVILLE*     PTSUNNY   64  64 100 NE6       30.02S
CREWE*         PTSUNNY   63  59  89 CALM      30.02S
FORT PICKETT*  FAIR      62  61  97 N3        30.03S
CHASE CITY*    FAIR      63  63 100 CALM      30.01F
CLARKSVILLE*   FAIR      61  61 100 CALM      30.02S
SOUTH HILL*    CLOUDY    61  60  96 N3        30.07S
LAWRENCEVILLE* FAIR      62  62  97 CALM      30.01S
EMPORIA*       CLOUDY    61  61 100 CALM      30.03R
$$

VAZ088>098-181300-
SOUTHEAST VIRGINIA

CITY           SKY/WX    TMP DP  RH WIND       PRES   REMARKS
NORFOLK        CLOUDY    65  63  93 CALM      30.00R
VIRGINIA BEACH CLOUDY    66  62  87 W5        29.99R
NORFOLK NAVAL  CLOUDY    69  63  81 W5        30.02R
WEST POINT*    CLOUDY    65  58  78 CALM      30.04R
SALUDA*        PTSUNNY   63  59  87 CALM      30.02R
NEWPORT NEWS   CLOUDY    67  62  84 N3        30.01R
LANGLEY AFB    CLOUDY    64  63  97 NW5       30.00R
FORT EUSTIS    CLOUDY    64 N/A N/A NW5       29.99R
WILLIAMSBURG*  CLOUDY    66  64  94 CALM      30.02R
HR EXEC AP*    FAIR      63  61  94 CALM      30.02R
FRANKLIN*      CLOUDY   N/A N/A N/A CALM      30.01S
WAKEFIELD      CLOUDY    63  60  90 CALM      30.01R FOG
$$

VAZ020-022-025-037-045-181300-
WEST CENTRAL AND SOUTHWEST VIRGINIA

CITY           SKY/WX    TMP DP  RH WIND       PRES   REMARKS
STAUNTON*      MOSUNNY   52  51  96 CALM      30.09S FOG
WAYNESBORO*    FAIR      54  53  95 CALM      30.07S
HOT SPRINGS VA SUNNY     56  50  80 E5        30.10S
LYNCHBURG      MOSUNNY   62  55  77 N8        30.05S
DANVILLE       PTSUNNY   63  60  90 NE3       30.02S
SOUTH BOSTON*  PTSUNNY   57  56  95 CALM      30.03R VSB 1/2
MARTINSVILLE   PTSUNNY   60  60 100 CALM      30.05S
ROANOKE        MOSUNNY   58  54  86 N7        30.07R
BLACKSBURG     SUNNY     53  52  97 CALM      30.10R
DUBLIN*        PTSUNNY   57  57 100 CALM      30.10R
MARION*        SUNNY     52  51  95 CALM      30.11R
HILLSVILLE*    SUNNY     56  54  93 NE3       30.08S
RICHLANDS*     FAIR      58  50  74 CALM      30.08S
WISE*          SUNNY     59  52  77 NE3       30.10R
ABINGDON*      SUNNY     57  57 100 CALM      30.07R
$$

MDZ021>025-VAZ099-100-181300-
SOUTHERN MARYLAND AND THE DELMARVA PENINSULA

CITY           SKY/WX    TMP DP  RH WIND       PRES   REMARKS
PATUXENT RIVER PTSUNNY   61  58  90 NW7       30.02R
BAY BRIDGE APT NOT AVBL
LEONARDTOWN      N/A     61  54  77 CALM      30.04R VSB<1/4
DOVER          SUNNY     59  59 100 N5        29.99R
GEORGETOWN     SUNNY     59  58  96 VRB5      30.02R
EASTON         MOSUNNY  N/A N/A N/A N5        30.06R
CAMBRIDGE      MOSUNNY   59  55  88 CALM      30.02R
SALISBURY      FOG       58  58 100 NW3       30.01R VSB 1/4
OCEAN CITY     MOSUNNY   59  58  96 NW3       30.01R
WALLOPS ISLAND MOSUNNY   62  60  93 CALM      30.01R
ACCOMACK*      MOSUNNY   63  59  88 N3        30.01R
$$

NCZ012>017-030>032-181300-
NORTH CENTRAL AND EASTERN NORTH CAROLINA

CITY           SKY/WX    TMP DP  RH WIND       PRES   REMARKS
ROANOKE RAPIDS FAIR      61  59  94 CALM      30.02R FOG
RALEIGH        CLOUDY    63  62  97 CALM      30.02S
ELIZABETH CITY CLOUDY    67  64  90 NW3       30.00R
AHOSKIE*       CLOUDY    63  62  97 CALM      30.01S
EDENTON*       CLOUDY    63  62  94 CALM      30.00S
CURRITUCK*     CLOUDY    64  62  93 CALM      30.00S
KILL DEVIL HLS CLOUDY    65  65 100 CALM      29.99S
MANTEO         CLOUDY    65  64  95 NW3       30.00S
CAPE HATTERAS  CLOUDY    60  58  92 CALM      30.00R
TARBORO*       PTSUNNY   62  61  97 CALM      30.02S
GOLDSBORO      CLOUDY    66  65  94 CALM      29.98S
WASHINGTON     RAIN      64  63  97 CALM      30.01R
GREENVILLE     RAIN      64  64 100 CALM      30.02S
NEW BERN       CLOUDY    67  65  93 CALM      30.01R
WILMINGTON     CLOUDY    66  65  96 CALM      29.99R
$$

VAZ048-181300-
ELSEWHERE

CITY           SKY/WX    TMP DP  RH WIND       PRES   REMARKS
HARRISBURG PA  MOSUNNY   55  49  80 NW5       30.04R
BALTIMORE      MOSUNNY   63  51  65 CALM      30.03R
ANNAPOLIS      SUNNY     61  52  72 NW5       30.03R
ANDREWS AFB    SUNNY     61  58  91 NW3       30.03R
PHILADELPHIA   MOSUNNY   62  52  69 N3        30.03R
HENDERSON NC   CLOUDY    60  59  96 CALM      30.02S FOG
GREENSBORO     FOG       61  61 100 CALM      30.01S VSB 1/4
ROCKY MOUNT    PTSUNNY   64  63  96 SW3       30.01F FOG
$$

VAZ100-181300-
MARINE

STATION/POSITION TIME  TEMP    WIND        PRES    WAVE   SWELL
                       AIR SEA DIR/SP/G            HT/PER HT/PER
                 (UTC) (F)     (DEG/KT/KT) (MB)    (FT/S) (FT/S)
CAPE MAY NJ      1100   52 53   CALM  /  1 1015.3R
LEWES DE         1100   57 50  300/  5/  5 1015.3R
15NM E FENWICK I 1150   50 48              1015.7R   3/11
OCEAN-CITY-INLET 1100   57 49  340/  3/  3 1015.2R
WACHAPREAGUE VA  1100   59 61  350/  2/  3 1015.6R
THOMAS POINT MD  1200   60 53  360/  5/  5 1017.5R
GOOSES REEF MD   1200   56 54  340/  4/  6   N/A     1/ 2
COVE POINT MD    1100   59     330/  8/  9 1016.0R
SOLOMONS ISLAND  1100      55                N/A
BISHOPS HEAD MD  1100   59 63  350/  4/  5 1015.5R
PINEY POINT MD   1100          330/  3/  4   N/A
CAMBRIDGE MD     1100   58 57  280/  1/  2 1015.7R
LEWISETTA VA     1100   62 59              1015.9R
RAPPAHANNOCK LGT 1100          330/ 12/ 12 1016.1R
STINGRAY PT      1200   58 57   20/  8/  8 1018.0R   0
YORK RVR RNG VA  1100   61     320/  5/  5 1014.8R
YORKTOWN VA      1100   60 58  300/  3/  4 1015.1R
DOMINION TERM VA 1100   63     310/  3/  4 1015.5R
KIPTOPEKE VA     1100      60  150/  3/  3   N/A
CHES BAY BRIDGE  1100   61 53  290/  3/  4 1015.1R
CAPE HENRY VA    1100   65     260/  5/  7 1014.2R
CHESAPEAKE LGHT  1100   59     250/ 10/ 10 1016.1R
WILLOUBY STN VA  1100   62     230/  4/  4 1016.1R
S CRANEY ISL VA  1100          240/  1/  2 1015.4R
CAPE HENRY BUOY  1128      53                N/A     4/ 6   2/12
1ST LANDING BUOY 1200   59     270/  2/  4 1015.5R   2/ 5
OFFSHORE WE BUOY 1111      48                N/A     4/ 7   3/ 7
64NM E OF VA BCH 1150   59 54  270/  6/  8 1015.1R   3/ 8   3/ 8
DUCK PIER NC     1100   65 53  270/  5/  6 1014.7R
44056 DUCK FRF   1111      54                N/A     3/ 7   2/12
OREGON INLET NC  1100   63 60  260/  1/  3 1015.4R
HATTERAS NC      1100   67 67   CALM  /  1 1015.2R
DIAMOND SHLS NC  1150   70 75  350/  8/  8 1015.6R   5/ 7   5/ 7
CAPE LOOKOUT NC  1200   67      50/  5/  6 1015.2S
$$


USA.gov is the U.S. government's official web portal to all federal, state and local government web resources and services.